Terminal Aerodrome Forecast
Issued by NWS Grand Rapids, MI

Home | Current Version | Previous Version | Text Only | Print | Product List | Glossary On
Versions: 1 2 3 4 5 6 7 8 9 10 11 12 13 14 15 16 17 18 19 20 21 22 23 24 25 26
000
FTUS43 KGRR 221700
TAFGRR
TAF
KGRR 221740Z 2218/2318 30008KT P6SM SCT025
     FM230100 28004KT P6SM SKC
     FM231000 00000KT 4SM BR SKC
     FM231300 25007KT P6SM SKC=

USA.gov is the U.S. government's official web portal to all federal, state and local government web resources and services.